Wind_Speed
9 9 9 9 9 9 9 9 8 9 8 8 7 6 5 6 6 8 8 9 10 11 11 12 12 12 12 12 11 10 10 9 9
9 9 9 9 10 9 9 9 8 8 8 7 5 5 5 5 7 7 9 10 10 11 11 13 12 12 11 10 9 9 8 9 10
9 9 9 9 9 9 8 8 7 6 6 5 4 4 3 5 6 7 8 9 10 11 13 13 12 11 9 8 8 8 8 9 10
9 9 8 8 8 8 8 7 7 6 5 3 3 3 4 5 6 7 8 9 10 11 12 12 11 10 9 8 9 9 9 10 11
8 8 8 7 6 7 7 6 5 4 3 2 3 4 4 7 7 7 8 9 9 10 10 11 10 10 10 10 9 10 10 12 13
8 7 7 6 6 5 5 5 3 2 1 1 3 5 7 6 7 9 9 10 10 10 10 10 9 9 10 10 10 10 11 12 13
7 7 6 5 5 4 4 3 3 1 0 1 2 4 6 7 7 8 9 9 10 10 10 10 9 9 10 11 11 11 12 13 14
6 5 5 5 4 3 2 2 1 0 1 2 3 4 5 6 7 8 8 8 8 9 9 9 10 10 10 11 12 13 13 13 14
6 5 4 4 3 3 2 2 1 1 1 2 3 5 4 6 6 7 8 8 8 8 9 9 10 11 12 12 13 14 15 15 15
6 5 4 4 3 3 2 2 2 3 3 4 5 6 5 5 6 6 7 8 8 8 9 10 11 12 14 15 16 17 18 19 19
7 6 5 4 3 3 3 3 4 4 5 6 6 7 7 6 7 7 7 8 8 10 11 12 13 15 16 17 18 19 20 20 21
7 6 5 5 5 4 5 5 5 6 7 8 8 9 9 9 8 9 9 9 10 11 13 14 16 17 19 20 21 21 22 22 23
8 7 6 6 6 6 7 7 7 8 9 10 10 11 11 11 12 11 12 12 14 14 16 17 18 20 21 22 23 23 24 24 25
10 9 8 8 8 8 8 9 10 10 11 11 12 12 13 13 14 14 15 16 15 17 18 20 21 22 23 24 25 25 26 27 28
12 11 10 9 9 9 10 11 12 12 12 13 14 15 15 16 16 16 17 19 19 20 21 22 23 25 25 26 26 28 29 30 31
13 12 11 10 10 9 10 12 14 15 15 15 16 17 17 18 19 19 18 20 21 22 24 25 26 28 28 29 29 31 32 34 35
14 13 12 12 12 11 12 13 14 16 17 17 19 19 20 20 20 21 21 22 23 24 26 27 28 30 32 32 31 33 36 37 39
16 14 13 13 13 14 14 15 16 17 19 20 20 21 23 21 21 22 23 23 26 26 27 30 32 32 33 35 35 37 40 40 41
18 17 16 15 16 17 16 17 20 19 20 21 22 22 23 24 24 23 25 26 28 30 29 31 36 37 37 39 39 39 41 41 42
20 19 19 18 17 18 17 18 21 21 20 21 23 23 23 24 25 27 28 28 30 33 32 34 37 39 40 41 41 41 42 43 43
Wind_Direction
118 116 112 106 105 103 101 99 99 101 99 93 83 72 53 42 23 17 16 9 359 354 349 344 347 344 339 343 346 343 342 341 338
120 118 114 112 111 109 107 106 103 103 100 97 95 70 36 18 11 3 3 353 350 346 344 343 350 347 352 353 351 347 358 356 354
124 122 118 117 115 112 112 112 113 111 108 102 80 65 36 14 0 355 350 346 347 346 345 356 356 357 360 358 356 357 358 353 353
132 131 127 126 127 126 127 126 127 125 118 104 57 18 356 3 358 355 349 348 350 351 353 0 1 358 359 359 355 348 345 343 342
139 139 138 136 137 133 130 129 130 127 119 76 7 342 358 4 357 354 352 352 351 352 353 358 2 351 347 351 346 338 334 333 334
147 144 143 143 144 139 138 139 139 138 108 28 1 339 360 7 359 357 355 353 351 350 351 352 357 341 338 339 337 332 330 328 326
154 151 149 148 151 150 154 157 158 174 216 12 349 354 0 1 2 357 354 353 349 349 348 346 345 342 335 331 329 327 323 321 321
160 160 155 157 159 159 158 166 171 223 333 351 344 351 358 356 357 358 355 353 350 347 345 342 340 336 330 325 322 320 318 317 316
166 173 171 166 177 172 179 200 242 276 301 313 318 326 350 348 352 352 351 351 351 347 343 341 336 331 326 322 318 314 312 312 311
182 186 196 181 202 206 216 233 261 282 293 297 301 309 326 331 334 339 342 346 344 341 336 332 328 325 321 317 313 311 309 308 307
193 200 204 209 227 244 254 269 284 292 292 294 295 299 306 314 316 324 329 328 326 327 326 325 323 322 321 318 315 312 310 308 306
203 214 223 232 239 241 263 271 279 286 287 287 291 296 299 301 301 307 309 311 314 315 315 315 316 317 318 317 315 312 309 307 306
211 216 224 236 254 262 266 270 273 277 281 285 288 291 294 297 300 299 299 303 304 306 309 311 311 312 313 313 312 310 308 306 305
217 223 230 243 250 261 270 276 280 282 282 283 285 286 288 290 292 294 295 294 295 300 303 306 308 309 310 310 310 307 305 304 304
218 229 230 241 252 265 277 282 283 281 280 282 282 283 283 285 286 288 291 294 297 299 301 303 305 305 307 306 306 304 303 303 302
223 228 237 243 248 257 270 278 284 282 280 279 280 279 279 282 285 285 286 290 293 297 300 302 304 304 305 304 306 304 303 303 302
231 233 233 248 257 262 268 273 277 281 283 280 281 281 281 282 284 287 288 291 294 297 299 301 302 302 304 305 305 303 302 303 303
228 232 244 250 261 265 268 274 274 276 279 279 278 280 281 281 283 287 291 293 295 296 298 301 301 302 305 304 305 305 304 304 303
227 233 236 240 248 261 266 274 276 277 277 279 280 280 285 289 288 289 291 294 295 299 303 304 304 307 307 306 307 306 304 304 302
232 236 241 247 249 254 262 268 271 275 276 278 279 279 282 283 290 293 293 293 296 299 303 303 304 306 306 306 306 304 303 302 302
Height
3166 3167 3167 3168 3169 3170 3171 3172 3173 3173 3174 3174 3174 3175 3175 3176 3176 3176 3175 3176 3175 3176 3175 3174 3174 3173 3173 3173 3172 3172 3171 3170 3170
3167 3168 3169 3170 3171 3172 3173 3174 3174 3175 3175 3176 3175 3175 3176 3176 3177 3176 3176 3176 3176 3175 3175 3174 3173 3172 3172 3172 3171 3171 3170 3170 3170
3168 3169 3170 3171 3173 3174 3174 3175 3176 3177 3177 3177 3177 3177 3177 3177 3177 3176 3176 3176 3175 3175 3174 3173 3172 3172 3172 3171 3171 3171 3170 3170 3169
3169 3170 3171 3172 3174 3175 3175 3176 3177 3177 3177 3177 3177 3177 3177 3178 3177 3176 3176 3176 3175 3174 3173 3173 3172 3172 3171 3171 3171 3171 3171 3170 3169
3169 3170 3171 3172 3174 3175 3176 3177 3177 3178 3178 3177 3177 3177 3178 3177 3177 3177 3175 3175 3174 3174 3173 3172 3172 3171 3170 3170 3170 3170 3169 3169 3168
3169 3170 3171 3173 3174 3175 3175 3176 3177 3177 3177 3177 3176 3175 3176 3177 3176 3176 3175 3175 3174 3173 3173 3172 3172 3171 3170 3169 3169 3169 3168 3167 3166
3169 3171 3172 3173 3174 3175 3175 3176 3176 3177 3176 3176 3176 3176 3176 3176 3176 3175 3175 3175 3174 3173 3172 3172 3172 3171 3170 3169 3168 3168 3167 3166 3165
3169 3171 3172 3173 3174 3174 3175 3176 3176 3176 3176 3176 3175 3175 3175 3175 3175 3175 3174 3173 3173 3172 3172 3171 3170 3170 3169 3169 3168 3167 3166 3164 3163
3168 3170 3171 3172 3173 3173 3174 3174 3175 3175 3174 3174 3174 3174 3175 3174 3174 3173 3173 3173 3172 3171 3171 3170 3170 3169 3168 3167 3166 3165 3164 3162 3161
3166 3168 3170 3170 3172 3172 3172 3173 3173 3173 3173 3172 3172 3172 3173 3172 3172 3172 3171 3171 3170 3170 3169 3169 3168 3167 3166 3165 3164 3163 3161 3160 3159
3165 3167 3168 3169 3170 3171 3171 3171 3171 3171 3171 3171 3171 3171 3170 3171 3170 3169 3169 3169 3168 3167 3167 3166 3165 3164 3163 3162 3161 3160 3158 3157 3155
3164 3166 3167 3167 3168 3168 3169 3169 3169 3169 3169 3169 3169 3169 3168 3168 3168 3167 3167 3166 3166 3165 3164 3163 3162 3161 3160 3159 3157 3156 3155 3153 3151
3161 3163 3164 3165 3166 3166 3166 3166 3166 3166 3166 3166 3166 3166 3165 3165 3165 3165 3164 3164 3163 3162 3162 3161 3159 3158 3157 3156 3154 3153 3151 3149 3148
3159 3160 3161 3162 3163 3163 3163 3163 3164 3164 3164 3163 3163 3163 3162 3162 3162 3161 3160 3160 3160 3158 3158 3157 3156 3154 3153 3151 3150 3148 3146 3144 3143
3155 3157 3157 3159 3160 3160 3161 3161 3161 3160 3160 3160 3160 3160 3159 3158 3158 3158 3157 3156 3155 3155 3154 3153 3151 3149 3148 3146 3145 3142 3140 3138 3136
3152 3153 3155 3155 3156 3156 3156 3157 3157 3157 3156 3155 3155 3155 3155 3154 3153 3154 3153 3152 3151 3150 3149 3147 3145 3144 3143 3140 3139 3136 3134 3132 3129
3149 3150 3150 3152 3152 3152 3152 3153 3153 3153 3152 3152 3151 3150 3151 3150 3149 3147 3148 3147 3146 3145 3143 3141 3140 3137 3136 3134 3134 3130 3127 3124 3122
3144 3145 3147 3147 3148 3148 3148 3148 3148 3148 3147 3146 3146 3144 3144 3145 3144 3143 3142 3142 3139 3139 3137 3135 3132 3132 3129 3126 3125 3122 3118 3116 3113
3139 3140 3140 3140 3142 3143 3143 3143 3143 3143 3142 3141 3140 3139 3138 3137 3138 3138 3137 3136 3133 3131 3131 3128 3124 3122 3121 3117 3116 3113 3109 3106 3103
3134 3135 3136 3136 3136 3137 3136 3136 3136 3136 3136 3136 3135 3135 3133 3133 3131 3129 3129 3129 3127 3125 3124 3121 3118 3115 3112 3109 3106 3103 3099 3096 3093